Chehalis, WA
on Sunday, November 4, 2012

Sunday
Previous Day Next Day
Daily Summary
 ActualAverage (KOLM)Record (KOLM)
Temperature
Mean Temperature °F 46°F  
Max Temperature 64°F 54°F 74°F (1949)
Min Temperature 55°F 38°F 22°F (2002)
Degree Days
Heating Degree Days 6 19  
Month to date heating degree days 75  
Since 1 July heating degree days 869  
Cooling Degree Days 0 0  
Month to date cooling degree days 0  
Year to date cooling degree days 106  
Growing Degree Days10 (Base °F )  
Moisture
Dew Point 57°F   
Average Humidity 90    
Maximum Humidity 100    
Minimum Humidity 82    
Precipitation
Precipitation 0.05 in 0.24 in 1.94 in (1969)
Month to date precipitation 0.97  
Year to date precipitation 34.88  
Wind
Wind Speed 6 mph   
Max Wind Speed 16 mph   
Max Gust Speed 22 mph   
Visibility 10 miles   
Events Rain   

Key: T is trace of precipitation, MM is missing value
Source: NWS Daily Summary
Time(PST)TemperatureDew PointHumidity Pressure Visibility Wind DirectionWind SpeedGust SpeedPrecipitationEvents Conditions
12:15 AM 57.2°F 55.4°F 94% 30.19 in 10.0 miles SSW 4.6 mph - N/A   Unknown
12:35 AM 57.2°F 55.4°F 94% 30.19 in 10.0 miles Calm Calm - N/A   Unknown
12:55 AM 55.4°F 55.4°F 100% 30.18 in 10.0 miles South 3.5 mph - N/A   Unknown
1:15 AM 55.4°F 55.4°F 100% 30.18 in 10.0 miles SSW 4.6 mph - 0.01 in   Unknown
1:35 AM 55.4°F 55.4°F 100% 30.19 in 10.0 miles SSW 5.8 mph - 0.01 in   Unknown
1:55 AM 57.2°F 55.4°F 94% 30.20 in 10.0 miles SSW 3.5 mph - 0.01 in   Unknown
1:15 AM 55.4°F 55.4°F 100% 30.19 in 10.0 miles South 3.5 mph - N/A   Unknown
1:35 AM 55.4°F 55.4°F 100% 30.19 in 10.0 miles South 3.5 mph - N/A   Unknown
1:55 AM 55.4°F 55.4°F 100% 30.19 in 10.0 miles Calm Calm - N/A   Unknown
2:15 AM 55.4°F 55.4°F 100% 30.19 in 10.0 miles South 4.6 mph - N/A   Unknown
2:35 AM 55.4°F 55.4°F 100% 30.19 in 10.0 miles SSW 4.6 mph - 0.01 in   Unknown
2:55 AM 55.4°F 55.4°F 100% 30.19 in 10.0 miles SSW 3.5 mph - 0.01 in   Unknown
3:15 AM 55.4°F 55.4°F 100% 30.20 in 10.0 miles South 5.8 mph - N/A   Unknown
3:35 AM 57.2°F 55.4°F 94% 30.19 in 10.0 miles South 5.8 mph - N/A   Unknown
3:55 AM 55.4°F 55.4°F 100% 30.19 in 7.0 miles South 4.6 mph - N/A   Unknown
4:15 AM 57.2°F 55.4°F 94% 30.19 in 10.0 miles South 4.6 mph - N/A   Unknown
4:55 AM 57.2°F 55.4°F 94% 30.20 in 10.0 miles South 4.6 mph - N/A   Unknown
5:15 AM 57.2°F 55.4°F 94% 30.21 in 10.0 miles SSW 3.5 mph - N/A   Unknown
5:35 AM 57.2°F 55.4°F 94% 30.21 in 10.0 miles SW 3.5 mph - N/A   Unknown
5:55 AM 57.2°F 55.4°F 94% 30.21 in 10.0 miles SSW 3.5 mph - N/A   Unknown
6:15 AM 57.2°F 55.4°F 94% 30.21 in 10.0 miles SSW 4.6 mph - 0.01 in   Unknown
6:35 AM 57.2°F 55.4°F 94% 30.20 in 10.0 miles SSW 4.6 mph - 0.01 in   Unknown
6:55 AM 57.2°F 55.4°F 94% 30.20 in 10.0 miles South 5.8 mph - 0.01 in   Unknown
7:15 AM 57.2°F 55.4°F 94% 30.21 in 10.0 miles SSW 5.8 mph - N/A   Unknown
7:55 AM 57.2°F 55.4°F 94% 30.23 in 10.0 miles South 5.8 mph - N/A   Unknown
8:15 AM 57.2°F 55.4°F 94% 30.23 in 10.0 miles SSW 4.6 mph - N/A   Unknown
8:55 AM 59.0°F 57.2°F 94% 30.24 in 10.0 miles South 8.1 mph - 0.01 in   Unknown
9:15 AM 59.0°F 57.2°F 94% 30.25 in 10.0 miles South 8.1 mph - N/A   Unknown
9:55 AM 60.8°F 57.2°F 88% 30.25 in 10.0 miles South 9.2 mph - N/A   Unknown
10:15 AM 62.6°F 57.2°F 82% 30.25 in 10.0 miles South 11.5 mph - N/A   Unknown
10:55 AM 62.6°F 57.2°F 82% 30.26 in 10.0 miles South 13.8 mph 20.7 mph N/A   Unknown
11:15 AM 62.6°F 57.2°F 82% 30.26 in 10.0 miles South 12.7 mph 20.7 mph N/A   Unknown
11:35 AM 62.6°F 57.2°F 82% 30.26 in 10.0 miles South 13.8 mph 18.4 mph N/A   Unknown
11:55 AM 62.6°F 57.2°F 82% 30.26 in 10.0 miles South 11.5 mph 18.4 mph N/A   Unknown
12:15 PM 62.6°F 57.2°F 82% 30.27 in 10.0 miles South 12.7 mph 19.6 mph N/A   Unknown
12:35 PM 62.6°F 59.0°F 88% 30.27 in 10.0 miles SSW 15.0 mph 19.6 mph N/A   Unknown
12:55 PM 62.6°F 59.0°F 88% 30.27 in 10.0 miles SSW 12.7 mph 21.9 mph N/A   Unknown
1:15 PM 62.6°F 59.0°F 88% 30.27 in 10.0 miles South 15.0 mph 21.9 mph N/A   Unknown
1:35 PM 64.4°F 59.0°F 83% 30.27 in 10.0 miles South 16.1 mph 21.9 mph N/A   Unknown
1:55 PM 64.4°F 59.0°F 83% 30.29 in 10.0 miles South 11.5 mph 17.3 mph N/A   Unknown
2:15 PM 62.6°F 59.0°F 88% 30.28 in 7.0 miles South 11.5 mph - N/A   Unknown
2:35 PM 64.4°F 59.0°F 83% 30.29 in 9.0 miles South 11.5 mph 16.1 mph N/A   Unknown
2:55 PM 64.4°F 59.0°F 83% 30.28 in 10.0 miles South 11.5 mph 17.3 mph N/A   Unknown
3:15 PM 64.4°F 59.0°F 83% 30.29 in 8.0 miles South 12.7 mph - N/A   Unknown
3:35 PM 64.4°F 59.0°F 83% 30.27 in 9.0 miles SSE 10.4 mph 20.7 mph N/A   Unknown
3:55 PM 64.4°F 59.0°F 83% 30.26 in 10.0 miles SSE 11.5 mph 18.4 mph N/A   Unknown
4:15 PM 64.4°F 59.0°F 83% 30.26 in 10.0 miles South 11.5 mph - N/A   Unknown
4:35 PM 62.6°F 59.0°F 88% 30.25 in 10.0 miles South 13.8 mph 18.4 mph N/A   Unknown
4:55 PM 64.4°F 59.0°F 83% 30.26 in 10.0 miles South 12.7 mph 19.6 mph N/A   Unknown
5:15 PM 64.4°F 59.0°F 83% 30.27 in 10.0 miles SSW 10.4 mph 17.3 mph N/A   Unknown
5:35 PM 64.4°F 59.0°F 83% 30.28 in 10.0 miles SSW 8.1 mph - N/A   Unknown
5:55 PM 64.4°F 59.0°F 83% 30.28 in 10.0 miles South 11.5 mph - N/A   Unknown
6:15 PM 64.4°F 59.0°F 83% 30.28 in 10.0 miles South 11.5 mph - N/A   Unknown
6:35 PM 64.4°F 59.0°F 83% 30.28 in 10.0 miles South 10.4 mph - N/A   Unknown
6:55 PM 64.4°F 59.0°F 83% 30.27 in 10.0 miles South 10.4 mph - N/A   Unknown
7:15 PM 64.4°F 59.0°F 83% 30.28 in 10.0 miles South 8.1 mph - N/A   Unknown
7:35 PM 64.4°F 59.0°F 83% 30.28 in 10.0 miles South 9.2 mph - N/A   Unknown
7:55 PM 62.6°F 59.0°F 88% 30.28 in 10.0 miles South 10.4 mph - N/A   Unknown
8:15 PM 62.6°F 59.0°F 88% 30.27 in 10.0 miles South 9.2 mph - N/A   Unknown
8:35 PM 62.6°F 59.0°F 88% 30.27 in 10.0 miles South 9.2 mph - N/A   Unknown
8:55 PM 62.6°F 59.0°F 88% 30.28 in 8.0 miles South 8.1 mph - N/A   Unknown
9:55 PM 60.8°F 59.0°F 94% 30.30 in 3.0 miles Calm Calm - N/A Rain Light Rain
10:15 PM 60.8°F 59.0°F 94% 30.30 in 7.0 miles SSW 4.6 mph - N/A   Unknown
10:35 PM 60.8°F 59.0°F 94% 30.30 in 10.0 miles Calm Calm - N/A   Unknown
10:55 PM 59.0°F 59.0°F 100% 30.30 in 10.0 miles Calm Calm - 0.01 in   Unknown
Moon Phase
Nov. 04 Nov. 06 Nov. 13 Nov. 20 Nov. 28
Sunrise:06:59 AM (PST) Moon Rise:09:31 PM (PST)11/4
Sunset:04:51 PM (PST) Moon Set:11:50 AM (PST)11/4

Copyright © 2014 The Weather Underground, Inc.